Погода в Мозыре

Погода в Мозыре : погода сейчас, прогноз погоды и архив. Всё, что Вы хотите узнать о погоде в Мозыре!

Хотите узнать прогноз погоды в Мозыре? Тогда Вам сюда: Погода в Мозыре

Поиск расширенной информации на нашем сайте:

Другие новости

Новости СМИ2

Главная страница сайта

Новости сайта

03.07.2017

Напоминаем, что на нашем специализированном сайте Метеоцентр.Азия вы можете получить высокодетализированные автоматические прогнозы погоды по пунктам России, СНГ и мира в авиационном формате (включающие направление и скорость ветра, видимость, явления погоды, количество и форму облачности, нижнюю и верхнюю границу облачности).


Погода в Мозыре - сегодня

Время (UTC), дата Ветер
(°,м/с) 
Видим.   Явления Облачность Т
(°С)
Тd
(°С)
f(%) Тe
(°С)
Pmin
(гПа)
dP
(гПа)
Po
(мм)
O2
(г/м3)
Тmin Tmax R s Состояние
почвы
18 21.11.17 220 (ЮЗ) 6000 м  дымка{снег}  9/4 600 м средняя 
[Sc|Ac und]
-0.3 -1.4 92 1012.6  0.3  742  299    +0.9  0.5     
21 21.11.17 260 (З) 5000 м  дымка  10/0 средняя 
[Ac As]
-0.3 -0.9 96 1012.9  0.3  742  299           
00 22.11.17 300 (СЗ) 4000 м  слаб. ливневой снег  10/3 1000 м кучево-дожд., средняя 
[Cb cap|Ac As]
-0.1 -0.6 96 +1  1013.2  0.3  742  299           
03 22.11.17 320 (СЗ) 5000 м  в посл. час ливневой снег  10/10 300 м 
[Sc]
+0.2 -0.4 96 +1  1013.7  0.6  743  299      0.1     
06 22.11.17 280 (З) 6000 м  дымка{ливн. осадки}  10/8 600 м средняя 
[Sc|Ac As]
-0.8 -1.5 95 1014.6  0.7  743  300  -0.8    0.1     
09 22.11.17 340 (С) 11000 м    8/5 600 м средняя 
[Sc|Ac trans]
+1 -0.9 87 +2  1015.7  1.3  744  299           
12 22.11.17 360 (С) 18000 м    9/8 600 м средняя 
[Sc|Ac und]
+1.2 -1.1 85 +2  1016  0.3  744  299           
15 22.11.17 тихо ()   10 км    9/4 600 м средняя 
[Sc|Ac und]
+0.4 -2.2 83 1017.7  1.6  746  300           
18 22.11.17 тихо ()   7000 м  дымка  ясно 
-2 -3.2 91 -2  1019  746  303    +1.7       
21 22.11.17 тихо ()   5000 м  дымка  ясно 
-3.8 -4.3 96 -4  1020.3  1.1  747  306           
00 23.11.17 тихо ()   6000 м  дымка  ясно 
-3.8 -4.3 96 -4  1021.1  0.8  748  306           
03 23.11.17 тихо ()   5000 м  дымка  ясно 
-5.4 -6.1 95 -5  1022.2  0.9  748  308           
06 23.11.17 тихо ()   2100 м  дымка{туман} [диам. изморози 2 мм]  3/0 верхняя 
[Cs]
-4.6 -5.1 96 -5  1022.8  0.7  749  307  -5.8         
09 23.11.17 240 (ЮЗ) 20000 м    3/0 верхняя 
[Ci fib]
+0.4 -2.2 83 +1  1022.7  0.4  749  302           
12 23.11.17 тихо ()   20000 м    3/0 верхняя 
[Ci fib]
+2.1 -3.5 66 +2  1022.1  -0.5  749  300           
15 23.11.17 тихо ()   10 км    4/0 верхняя 
[Cs]
-0.6 -3.8 79 -1  1022.6  0.3  749  303           
18 23.11.17 160 (Ю) 10 км    3/0 верхняя 
[Ci fib]
-1.3 -3.8 83 -1  1022.9  0.2  749  304    +2.3       
21 23.11.17 150 (ЮВ) 10 км    3/0 средняя 
[Ac trans]
-1.7 -4 84 -1  1022.8  -0.1  749  304           
00 24.11.17 140 (ЮВ) 10 км    ясно 
-2.5 -4.5 86 -2  1022.3  -0.6  749  305           
03 24.11.17 130 (ЮВ) 10 км    5/0 средняя 
[Ac trans]
-2.5 -4.7 85 -4  1022.6  0.3  749  305           
06 24.11.17 150 (ЮВ) 15000 м    9/0 средняя 
[Ac und]
-2.5 -4.6 85 -4  1022.4  -0.2  749  305  -2.8         
09 24.11.17 160 (Ю) 17000 м    9/0 средняя 
[Ac und]
-0.7 -3.1 84 -3  1022.6  0.4  749  303           
12 24.11.17 160 (Ю) 20000 м    6/0 средняя 
[Ac trans]
+0.8 -2.8 77 -1  1021.8  -0.7  749  301           
15 24.11.17 150 (ЮВ) 10 км    6/0 средняя 
[Ac trans]
-0.6 -2.6 86 -2  1021.7  -0.2  748  302           
18 24.11.17 160 (Ю) 9000 м  дымка  ясно 
-1.2 -2.7 90 -2  1021.9  0.1  748  303    +1.3       
Время (UTC), дата Ветер
(°,м/с) 
Видим.   Явления Облачность Т
(°С)
Тd
(°С)
f(%) Тe
(°С)
Pmin
(гПа)
dP
(гПа)
Po
(мм)
O2
(г/м3)
Тmin Tmax R s Состояние
почвы

Для получения пояснительной информации подведите курсор к названию столбца.

ПОГОДА в Мозыре - архив

Всё, что Вы хотите узнать о погоде в Мозыре - удобно и подробно!

Выберите нужную дату (начиная с 1 января 2015* года) и нажмите кнопку "Найти".
Будут отображены архивные сводки погоды по пункту Мозырь, начиная с указанной даты.


Отображать данные в формате CSV (для использования в таблицах Excel)


Внимание! Наш архив погоды предназначен исключительно для личного некоммерческого использования в познавательных целях. Если Вам необходимы официальные справки о состоянии погоды (для производственных, юридических, коммерческих и т.п. целей), обращайтесь в органы Росгидромета.

*Примечание: данная дата относится к архиву по метеостанциям СССР (Россия, СНГ, Балтия).
Архив по метеостанциям Зарубежной Европы и Азии (кроме Китая) хранится 10 дней, по другим регионам земного шара (Китай, Африка, Америка, Австралия, Океания) - 1 день.

Мозырь - район местоположения метеостанции


Название, широта, долгота, высота метеостанции:
Мозырь 51.9°ш. 29.2°д. 170 м над ур. моря [Беларусь]

Дополнительная информация

В oтличие oт бoльшинства пoгoдных сайтoв мы публикуем пoдрoбную метеoинфoрмацию в детальнoм прoфессиoнальнoм фoрмате.

Характеристики температуры и влажнoсти вoздуха измеряются на высoте 2 м в тени вдали oт зданий и деревьев.
Скoрoсть ветра измеряется на высoте 10 м (на урoвне рoста челoвека скoрoсть ветра ниже в 1.5-2 раза). Если метеoстанция нахoдится в гoрoде или в лесу, тo скoрoсть ветра занижена на 2-4 м/с пo сравнению с oткрытым местoм. Скoрoсть ветра над акватoриями крупных рек и oзёр, а также на вершинах хoлмoв на 2-5 м/с выше, чем в oбычных услoвиях.
Атмoсфернoе давление в разных тoчках местнoсти мoжет значительнo oтличаться oт давления на метеoстанции, в зависимoсти oт услoвий рельефа (при пoдъёме на 10 м давление пoнижается примернo на 1 мм рт.ст.).